www.pogodaiklimat.ru

Погода и климат >> Архив погоды >> Россия >> Камчатский край >> Озерная


ПОГОДА в Озерной

  • Прогноз погоды в Озерной
  • Монитор погоды в Озерной

АРХИВ ПОГОДЫ в Озерной

Время (UTC), дата Ветер
(напр.,м/с)
 
Видим.   Явления Облачность Т
(С)
Тd
(С)
f
(%)
Тe
(С)
Тes
(С)
Комфортность P
(гПа)
Po
(гПа)
Тmin
(С)
Tmax
(С)
R
(мм)
R24
(мм)
S
(см)
12 11.06 СЗ 3 2000 м в посл. час туман {ливн. осадки} 10/10 200 м
[St]
+5.9 +5.5 97 +2 +2 1018.0 1014.5
15 11.06 З 4 500 м туман ?/? +5.6 +5.2 97 +1 +1 1018.7 1015.2
18 11.06 З 4 500 м туман {ливн. осадки} ?/? +5.5 +5.1 97 +1 +1 1019.6 1016.1
21 11.06 З 2 2000 м в посл. час туман 10/10 100 м
[St]
+6.1 +5.7 97 +3 +3 1020.3 1016.7 +5.5 1
00 12.06 З 3 4000 м дымка {туман} 10/10 100 м
[St]
+6.2 +5.9 98 +3 +3 1020.7 1017.2
03 12.06 СЗ 3 2000 м в посл. час туман 10/10 100 м
[St]
+6.6 +6.3 98 +3 +3 1020.6 1017.1
06 12.06 З 3 20 км {туман} 9/9 300 м
[St]
+8.0 +6.3 89 +5 +6 1020.4 1016.9
09 12.06 СЗ 3 20 км 9/9 300 м
[St]
+6.7 +5.6 93 +3 +3 1020.3 1016.8 +8.2
12 12.06 З 2 10 км 10/10 300 м
[St]
+6.2 +4.8 91 +4 +4 1020.9 1017.4
15 12.06 З 3 10 км 10/10 200 м
[St]
+5.5 +4.6 94 +2 +2 1020.4 1016.9
18 12.06 С 2 4000 м дымка 10/10 100 м
[St]
+5.9 +5.0 94 +3 +3 1019.7 1016.1
21 12.06 ЮЗ 2 20 км 9/9 300 м
[St]
+7.3 +5.5 88 +5 +6 1019.3 1015.8 +5.4
00 13.06 Ю 3 20 км 10/10 300 м
[St]
+7.0 +5.5 90 +4 +4 1018.9 1015.4
03 13.06 ЮЗ 1 10 км 10/10 300 м
[St]
+6.6 +5.0 90 +5 +5 1018.1 1014.6
06 13.06 Ю 3 4000 м слаб. морось 10/10 200 м
[St]
+6.1 +5.0 93 +3 +3 1017.7 1014.2
09 13.06 Ю 2 4000 м слаб. морось 10/10 100 м
[St]
+5.4 +4.7 95 +3 +3 1017.7 1014.2 +7.7 0.0
12 13.06 штиль 0 10 км слаб. ливневой дождь {морось} 9/9 100 м
[Cb cap]
+4.8 +4.1 95 +4 +4 1017.7 1014.1
15 13.06 З 1 20 км {ливн. осадки} 9/9 300 м
[St]
+5.2 +4.1 93 +4 +4 1017.2 1013.7
18 13.06 СЗ 2 10 км {ливн. осадки} 10/10 200 м
[St]
+5.1 +4.3 95 +2 +2 1017.7 1014.1
21 13.06 СЗ 3 10 км 10/10 300 м
[St]
+6.2 +4.8 91 +3 +3 1018.4 1014.9 +4.8 0.6
00 14.06 С 5 20 км 10/10 300 м
[St]
+7.6 +5.7 88 +4 +4 1018.2 1014.7
03 14.06 СЗ 5 20 км 10/10 200 м
[St]
+6.9 +4.8 86 +3 +3 1018.7 1015.2
06 14.06 СЗ 5 20 км 10/10 600 м
[Sc]
+7.0 +4.9 86 +3 +3 1019.2 1015.7
09 14.06 СЗ 3 20 км 9/9 300 м
[St]
+6.7 +5.0 89 +4 +4 1020.6 1017.0 +7.7
12 14.06 С 3 20 км 9/9 600 м
[Sc]
+6.2 +4.7 90 +3 +3 1021.2 1017.7
15 14.06 СЗ 3 20 км 8/8 600 м
[Sc]
+6.4 +4.7 89 +3 +3 1021.7 1018.2
18 14.06 СЗ 2 20 км 10/10 600 м
[Sc]
+6.2 +4.9 91 +4 +4 1022.2 1018.7
21 14.06 СЗ 3 20 км 10/10 300 м
[St]
+7.3 +4.8 84 +4 +4 1022.2 1018.7 +5.9
00 15.06 З 3 20 км 9/9 300 м
[St]
+7.9 +5.4 84 +5 +6 1022.9 1019.3
03 15.06 Ю 3 20 км 10/10 300 м
[St]
+7.6 +5.9 89 +5 +5 1023.5 1020.0
06 15.06 З 2 50 км 4/3 600 м
[Sc Ci fib]
+9.4 +5.7 78 +8 +12 1023.3 1019.8
09 15.06 Ю 7 50 км 9/4 600 м
[Sc Cs]
+7.6 +4.6 81 +3 +3 1023.4 1019.9 +9.8
12 15.06 Ю 4
{12}
20 км 9/9 600 м
[Sc]
+6.9 +3.7 80 +3 +3 1023.3 1019.8
15 15.06 ЮВ 6-10
{10}
10 км слаб. ливневой дождь 9/9 300 м
[Cb cap]
+7.7 +3.6 75 +4 +4 1023.3 1019.8
18 15.06 ЮВ 4
{13}
20 км {ливн. осадки} 10/10 600 м
[Sc diur, vesp]
+9.5 +5.2 75 +7 +7 1023.3 1019.8
21 15.06 ЮВ 8-11
{11}
20 км 10/10 600 м
[Sc]
+8.3 +5.3 81 +4 +4 1024.1 1020.6 +6.1 0.0
00 16.06 В 3
{11}
50 км в посл. час ливневой дождь ясно +9.5 +6.9 84 +7 +20 опасность
простуды
1024.2 1020.7
03 16.06 Ю 7-10
{11}
50 км 10/10 600 м
[Sc]
+8.9 +6.0 82 +5 +5 1024.8 1021.3
06 16.06 Ю 4
{12}
50 км слаб. ливневой дождь 10/10 300 м
[Cb cap]
+8.0 +6.2 88 +5 +5 1024.2 1020.7
09 16.06 Ю 4 50 км слаб. ливневой дождь 10/10 300 м
[Cb cap]
+7.7 +5.8 88 +4 +4 1022.9 1019.4 +10.3 2
12 16.06 СВ 1
{11}
20 км слаб. ливневой дождь 10/10 200 м
[Cb cap]
+6.7 +4.8 88 +6 +6 1022.2 1018.7
15 16.06 СВ 3 20 км слаб. ливневой дождь 9/9 300 м
[Cb cap]
+6.6 +4.0 83 +4 +4 1020.1 1016.6
18 16.06 В 8-12
{12}
50 км слаб. ливневой дождь 10/10 300 м
[Cb cap]
+6.3 +3.5 82 +1 +1 1017.1 1013.5
21 16.06 В 12-17
{17}
50 км в посл. час ливневой дождь 10/10 600 м
[Cb cap]
+7.4 +3.6 77 +2 +2 1013.5 1010.0 +6.1 1
00 17.06 В 13-21
{21}
10 км слаб. ливневой дождь 10/10 300 м
[Cb cap]
+6.7 +3.7 81 0 0 1011.4 1007.9
03 17.06 В 15-22
{27}
20 км в посл. час ливневой дождь 9/9 600 м
[Cb calv]
+9.5 +4.4 70 +4 +4 1006.9 1003.5
06 17.06 В 11-17
{24}
20 км {ливн. осадки} 9/9 600 м
[Cb calv]
+11.5 +4.1 60 +8 +8 1005.1 1001.7
09 17.06 В 13-21
{22}
50 км 9/9 600 м
[Cb calv]
+8.8 +3.5 69 +3 +3 1003.0 999.6 +13.9 3
12 17.06 В 16-23
{28}
10 км слаб. ливневой дождь 9/9 300 м
[Cb cap]
+8.3 +4.1 75 +2 +2 1000.7 997.2
15 17.06 В 13-22
{27}
20 км {ливн. осадки} 9/9 600 м
[Cb calv]
+7.9 +4.8 81 +2 +2 999.0 995.6
18 17.06 В 13-19
{24}
50 км {ливн. осадки} 9/8 600 м
[Sc Ci fib]
+8.7 +5.1 78 +3 +3 998.0 994.6
21 17.06 В 13-19
{20}
50 км слаб. ливневой дождь 10/10 300 м
[Cb cap]
+10.1 +5.6 74 +5 +5 996.4 993.0 +7.4 0.0
00 18.06 В 10-15
{21}
20 км в посл. час ливневой дождь 9/9 600 м
[Cb calv]
+11.3 +6.3 71 +7 +8 996.2 992.9
03 18.06 СЗ 3-13
{21}
20 км {ливн. осадки} 9/9 600 м
[Cb calv]
+13.6 +6.5 62 +13 +14 995.6 992.3
06 18.06 В 14-21
{21}
20 км {ливн. осадки} 9/9 600 м
[Cb calv]
+10.6 +4.3 65 +6 +6 995.9 992.5

 

Местоположение метеостанции Озерная (Камчатский край, Россия): широта 51.48 долгота 156.40 высота над уровнем моря 28 м.

В архиве по умолчанию представлена погода в Озерной за последнюю неделю. Архивные данные за месяц целиком и за предыдущие месяцы, начиная с января 2011 года, Вы можете получить, выбрав интересующий диапазон дат из раскрывающегося списка и нажав кнопку "Ввод!".


*Определитесь, кто Вы:
робот инопланетянин человек

Внимание! Время в таблицах - всемирное. Для получения местного времени необходимо прибавить поправку, которая равна 12 ч.

Смотрите также архив погоды в соседних городах и на ближайших метеорологических станциях:

Погода на Мысе Лопатка (Камчатский край, Россия) (69 км)
Погода в Северо-Курильске (Сахалинская область, Россия) (91 км)
Погода в Водопадной (Камчатский край, Россия) (117 км)
Погода в Большерецке (Камчатский край, Россия) (150 км)
Погода в Начиках (Камчатский край, Россия) (203 км)
Погода в Петропавловск-Камчатском (Камчатский край, Россия) (215 км)
Погода в Сосновке (Камчатский край, Россия) (220 км)
Погода в Петропавловском Маяке (Камчатский край, Россия) (221 км)
Погода в Петропавловск-Камч. 2 (Камчатский край, Россия) (228 км)
Погода в Соболево (Камчатский край, Россия) (315 км)

Пояснения к столбцам:

Ветер - указаны скорость ветра в м/с - средняя за 10 мин, порывы в срок и между сроками (в фигурных скобках) и направление, откуда дует ветер: С - северный, СВ - северо-восточный, В - восточный, ЮВ - юго-восточный, Ю - южный, ЮЗ - юго-западный, З - западный, СЗ - северо-западный.
Видимость - горизонтальная дальность видимости в метрах или километрах. При видимости от 1 до 10 км при отсутствии осадков обычно наблюдается дымка, при ухудшении видимости до 1 км и менее - туман. В сухую погоду видимость может ухудшаться дымом, пылью или мглою.
Явления - указаны атмосферные явления, наблюдавшиеся в срок или в последний час перед сроком; фигурными скобками обозначены явления, наблюдавшиеся между сроками (за 1-3 часа до срока); квадратными скобками обозначены град или гололедные отложения с указанием их диаметра в мм.
Облачность - указаны через наклонную черту общая и нижняя облачность в баллах и высота нижней границы облаков в метрах; квадратными скобками обозначены формы облаков: Ci - перистые, Cs - перисто-слоистые, Cc - перисто-кучевые, Ac - высококучевые, As - высокослоистые, Sc - слоисто-кучевые, Ns - слоисто-дождевые, Cu - кучевые, Cb - кучево-дождевые. Подробнее классификацию облаков см. в Атласе облаков (PDF).
T - Температура воздуха - температура, измеренная на высоте 2 м над землей.
Td - Температура точки росы - температура, при понижении до которой содержащийся в воздухе водяной пар достигнет насыщения.
f - Относительная влажность воздуха - влажноcть воздуха, измеренная на высоте 2 м над землей.
Te - Эффективная температура - температура, которую ощущает одетый по сезону человек в тени. Характеристика душности погоды. При расчете учитывается влияние влажности воздуха и скорости ветра на теплоощущения человека.
Tes - Эффективная температура на солнце - температура, которую ощущает человек, с поправкой на солнечный нагрев. Характеристика знойности погоды. Зависит от высоты солнца над горизонтом, облачности и скорости ветра. Ночью, в пасмурную погоду, а также при ветре 12 м/с и более поправка равна нулю.
P - Атмосферное давление - приведенное к уровню моря атмосферное давление.
Po - Атмосферное давление - измеренное на уровне метеостанции атмосферное давление.
Tmin - Минимальная температура - минимум температуры воздуха на высоте 2 м над землей.
Tmax - Максимальная температура - максимум температуры воздуха на высоте 2 м над землей.
R - Количество осадков - Количество выпавших осадков за период времени, мм. При наведении курсора мыши на число - период времени, за который выпало указанное количество осадков.
R24 - Количество осадков - Количество выпавших осадков за 24 часа, мм.
S - Снежный покров - Высота снежного покрова, см. При наведении курсора мыши на число - состояние снежного покрова и степень покрытия местности в баллах.